Showing default

COSMOS 1285, 12627

Orbit data source: Space-Track

COSMOS 1285, 12627 is a payload satellite owned by PVO (CIS) in HEO that was launched on Tue, 04 Aug 1981 UTC via an MOLNIYA 8K78M launch vehicle from the Plesetsk Missile And Space Complex (PKMTR). Payload-class satellites include a variety of spacecraft equipped with specific instruments for various scientific and technological missions. These include communications satellites like Starlink; space stations such as the ISS; scientific satellites like the Hubble; Earth observation satellites from companies like Planet Labs, Umbra, and HawkEye 360; GPS; miniature CubeSats for education and research; and military/defense satellites.

Loading next visibility...
Identifier
12627, 1981-071A
Orbit
HEO
Country
Flag of CISCIS
Related business
Manufacturer
NPOL/KOMET
Mission
Defense Early Warn
Bus & Motor
OKO, Unknown motor
Mass
~1,250 kg wet, ~1,150 kg dry
Launch date (UTC)
1981-08-04 (44 years ago)
Launch vehicle
MOLNIYA 8K78M
Launch site
Plesetsk Missile And Space Complex (PKMTR)
Object type
Payload
Rocket body
Debris
Shape & HBR
Irr + 6 Pan, 2.1 m
Radar Cross Section
15.540 m², Large (>1 m²)

Expand to show TLE details & history
Last TLE update: 2 days ago

TLE from 2 days ago
0 COSMOS 1285
1 12627U 81071A   25258.79977027 -.00000204  00000-0  00000-0 0  9992
2 12627  68.2930 108.7446 6158574 359.1096 183.0717  1.98055177241060
Epoch: 2025-09-15T19:11Z
TLE epoch observation values (Epoch: 2025-09-15T19:11:40.151Z)
Latitude
-0.07907°
Longitude
5.86236°
Altitude
36,882.111 km
Speed
1.883 km/s
True Right ascension
19h 15m 06s
True Declination
0° 04' 44"
Sunlit
Object was in daylight at epoch
Visualization orbit readout
Latitude
Unknown
Longitude
Unknown
Altitude
Unknown
Speed
Unknown
Apparent Right ascension
Unknown
Apparent Declination
Unknown
Sunlit
N/A
Visualization observer readout
Local Sidereal Time
13:12:20
Azimuth
Unknown
Elevation
Unknown
Doppler factor
Unknown
Orbital elements
Apogee altitude
36,899.639 km
Perigee altitude
3,910.418 km
Semi-major axis
26,783.165 km
Eccentricity
0.61586
Inclination
68.293°
RAAN
108.7446°
Arg. of periapsis
359.1096°
True anomaly
180.927°
Mean anomaly
183.0717°
Eccentric anomaly
181.90111°
Mean motion
0.49517 °/min
Orbital period
727.03 mins
BSTAR
0
Loading maneuver chart data...
Computing Atmospheric mass density...
Loading historical data...
Loading historical data...
Loading historical data...
Loading historical data...
Loading historical data...
Loading historical data...
Loading historical data...

Documentation

Showing up to 5 results
|